QPF
0.03 0.04 0.05 0.05 0.05 0.05 0.04 0.04 0.05 0.05 0.04 0.07 0.09 0.09 0.08 0.07 0.08 0.08 0.07 0.09 0.09 0.08 0.10 0.11 0.11 0.09 0.08 0.07 0.08 0.10 0.11 0.11 0.10 0.08 0.07 0.05 0.05 0.04 0.04 0.04 0.04 0.04 0.04
0.04 0.04 0.04 0.05 0.05 0.05 0.04 0.04 0.04 0.04 0.04 0.06 0.07 0.07 0.07 0.06 0.07 0.07 0.07 0.08 0.10 0.09 0.08 0.08 0.08 0.08 0.09 0.09 0.10 0.12 0.14 0.14 0.12 0.10 0.08 0.07 0.05 0.05 0.06 0.05 0.04 0.04 0.03
0.04 0.03 0.05 0.06 0.06 0.05 0.04 0.04 0.04 0.04 0.05 0.06 0.07 0.06 0.07 0.07 0.07 0.06 0.06 0.07 0.07 0.07 0.06 0.05 0.06 0.06 0.07 0.08 0.09 0.09 0.10 0.11 0.12 0.11 0.10 0.10 0.08 0.07 0.07 0.07 0.06 0.06 0.03
0.03 0.04 0.06 0.06 0.05 0.04 0.04 0.04 0.04 0.04 0.05 0.06 0.07 0.07 0.07 0.07 0.07 0.06 0.05 0.05 0.05 0.07 0.07 0.06 0.07 0.08 0.08 0.08 0.09 0.09 0.10 0.12 0.13 0.11 0.10 0.09 0.09 0.09 0.09 0.08 0.06 0.05 0.04
0.04 0.05 0.06 0.06 0.05 0.05 0.04 0.05 0.06 0.05 0.05 0.05 0.05 0.05 0.05 0.05 0.04 0.05 0.05 0.04 0.04 0.06 0.07 0.07 0.06 0.07 0.09 0.09 0.08 0.09 0.11 0.13 0.13 0.12 0.10 0.09 0.08 0.09 0.09 0.08 0.07 0.06 0.05
0.03 0.03 0.04 0.04 0.03 0.03 0.03 0.04 0.04 0.04 0.04 0.04 0.04 0.03 0.04 0.03 0.03 0.04 0.05 0.04 0.04 0.04 0.05 0.06 0.05 0.05 0.05 0.06 0.05 0.08 0.11 0.11 0.12 0.11 0.09 0.08 0.08 0.07 0.07 0.08 0.08 0.08 0.07
0.02 0.02 0.02 0.03 0.03 0.03 0.03 0.03 0.03 0.04 0.05 0.05 0.04 0.04 0.04 0.05 0.03 0.04 0.04 0.04 0.04 0.04 0.04 0.04 0.04 0.03 0.04 0.06 0.06 0.06 0.07 0.10 0.12 0.12 0.11 0.09 0.09 0.07 0.09 0.09 0.09 0.09 0.07
0.02 0.02 0.02 0.03 0.03 0.04 0.04 0.04 0.04 0.05 0.05 0.04 0.04 0.05 0.06 0.04 0.03 0.03 0.04 0.04 0.04 0.04 0.04 0.04 0.04 0.03 0.04 0.07 0.09 0.08 0.09 0.08 0.08 0.09 0.11 0.10 0.10 0.10 0.10 0.09 0.09 0.09 0.07
0.02 0.01 0.02 0.02 0.03 0.04 0.03 0.04 0.05 0.06 0.06 0.04 0.04 0.05 0.07 0.04 0.03 0.03 0.03 0.03 0.04 0.04 0.05 0.04 0.05 0.04 0.04 0.06 0.08 0.09 0.08 0.06 0.05 0.05 0.06 0.08 0.08 0.09 0.11 0.11 0.10 0.10 0.09
0.02 0.02 0.02 0.02 0.02 0.03 0.03 0.04 0.05 0.07 0.06 0.04 0.04 0.06 0.07 0.06 0.03 0.03 0.03 0.03 0.04 0.05 0.06 0.06 0.06 0.05 0.05 0.04 0.05 0.05 0.05 0.05 0.05 0.05 0.05 0.04 0.04 0.05 0.08 0.11 0.11 0.10 0.08
0.02 0.02 0.01 0.01 0.02 0.02 0.03 0.04 0.05 0.06 0.06 0.05 0.05 0.06 0.07 0.05 0.04 0.03 0.03 0.03 0.05 0.05 0.05 0.05 0.06 0.05 0.04 0.03 0.04 0.05 0.05 0.05 0.05 0.06 0.08 0.07 0.07 0.08 0.08 0.09 0.12 0.11 0.09
0.02 0.02 0.02 0.02 0.02 0.01 0.02 0.03 0.06 0.07 0.06 0.05 0.05 0.05 0.06 0.05 0.03 0.03 0.02 0.02 0.04 0.04 0.04 0.04 0.03 0.03 0.03 0.03 0.03 0.04 0.05 0.05 0.05 0.05 0.07 0.09 0.11 0.10 0.08 0.07 0.08 0.10 0.08
0.03 0.03 0.03 0.04 0.03 0.02 0.03 0.03 0.04 0.05 0.04 0.03 0.04 0.05 0.05 0.04 0.03 0.03 0.02 0.02 0.03 0.04 0.04 0.03 0.03 0.03 0.03 0.03 0.04 0.04 0.03 0.04 0.06 0.06 0.07 0.09 0.09 0.10 0.10 0.09 0.08 0.09 0.09
0.04 0.03 0.03 0.04 0.03 0.03 0.03 0.02 0.02 0.04 0.04 0.03 0.03 0.04 0.04 0.04 0.04 0.04 0.03 0.04 0.04 0.05 0.05 0.04 0.03 0.03 0.03 0.05 0.04 0.03 0.03 0.04 0.05 0.06 0.06 0.07 0.08 0.10 0.11 0.11 0.09 0.09 0.09
0.04 0.04 0.04 0.03 0.03 0.02 0.02 0.02 0.03 0.02 0.02 0.03 0.03 0.03 0.03 0.04 0.03 0.03 0.02 0.03 0.04 0.05 0.04 0.03 0.04 0.05 0.05 0.05 0.05 0.05 0.05 0.05 0.04 0.04 0.05 0.06 0.08 0.10 0.11 0.10 0.10 0.10 0.10
0.03 0.04 0.04 0.03 0.02 0.01 0.02 0.02 0.02 0.01 0.01 0.01 0.02 0.02 0.02 0.02 0.02 0.01 0.01 0.01 0.02 0.03 0.04 0.04 0.05 0.05 0.05 0.05 0.05 0.05 0.05 0.05 0.05 0.04 0.05 0.05 0.06 0.08 0.09 0.09 0.09 0.09 0.09
0.04 0.05 0.04 0.03 0.02 0.02 0.02 0.03 0.04 0.02 0.01 0.01 0.01 0.02 0.02 0.01 0.01 0.01 0.01 0.02 0.02 0.02 0.03 0.04 0.04 0.05 0.05 0.05 0.04 0.04 0.04 0.04 0.05 0.05 0.05 0.05 0.05 0.05 0.06 0.07 0.08 0.08 0.08
0.04 0.05 0.04 0.05 0.04 0.03 0.03 0.03 0.04 0.04 0.03 0.02 0.02 0.02 0.02 0.02 0.02 0.01 0.02 0.02 0.03 0.03 0.03 0.04 0.04 0.05 0.04 0.04 0.04 0.05 0.04 0.04 0.05 0.05 0.05 0.05 0.05 0.04 0.05 0.06 0.07 0.07 0.07
0.04 0.03 0.03 0.04 0.03 0.03 0.03 0.04 0.03 0.03 0.03 0.04 0.04 0.04 0.04 0.03 0.03 0.02 0.02 0.03 0.04 0.04 0.05 0.04 0.04 0.03 0.04 0.05 0.05 0.05 0.05 0.04 0.05 0.05 0.04 0.05 0.06 0.06 0.05 0.06 0.06 0.06 0.07
0.04 0.03 0.03 0.03 0.02 0.02 0.03 0.03 0.03 0.02 0.03 0.04 0.05 0.04 0.04 0.04 0.05 0.04 0.03 0.03 0.03 0.03 0.04 0.04 0.03 0.04 0.06 0.05 0.03 0.04 0.04 0.04 0.05 0.05 0.05 0.05 0.06 0.07 0.07 0.06 0.06 0.06 0.06
0.04 0.05 0.05 0.04 0.03 0.03 0.03 0.03 0.03 0.02 0.02 0.03 0.03 0.03 0.03 0.04 0.04 0.03 0.03 0.04 0.04 0.04 0.05 0.05 0.05 0.06 0.05 0.03 0.03 0.03 0.04 0.04 0.05 0.05 0.06 0.07 0.06 0.07 0.07 0.05 0.05 0.05 0.06
0.03 0.04 0.04 0.04 0.04 0.03 0.03 0.03 0.03 0.03 0.02 0.02 0.03 0.02 0.03 0.04 0.04 0.02 0.02 0.03 0.04 0.04 0.04 0.05 0.05 0.05 0.05 0.04 0.03 0.04 0.03 0.04 0.06 0.07 0.06 0.06 0.06 0.06 0.05 0.05 0.05 0.04 0.05
0.02 0.04 0.04 0.04 0.03 0.02 0.02 0.03 0.03 0.02 0.02 0.01 0.02 0.02 0.02 0.02 0.02 0.03 0.03 0.02 0.03 0.04 0.04 0.05 0.05 0.04 0.05 0.04 0.04 0.05 0.04 0.05 0.06 0.06 0.06 0.06 0.06 0.06 0.06 0.06 0.05 0.04 0.04
0.02 0.04 0.05 0.04 0.04 0.04 0.04 0.03 0.03 0.02 0.02 0.02 0.02 0.03 0.03 0.04 0.03 0.04 0.04 0.04 0.04 0.04 0.03 0.03 0.03 0.03 0.03 0.04 0.04 0.05 0.05 0.04 0.03 0.03 0.04 0.05 0.05 0.05 0.06 0.07 0.07 0.05 0.04
0.02 0.03 0.04 0.04 0.04 0.05 0.04 0.04 0.03 0.02 0.03 0.03 0.04 0.04 0.04 0.05 0.05 0.05 0.05 0.05 0.05 0.04 0.02 0.02 0.03 0.03 0.03 0.04 0.04 0.04 0.03 0.02 0.01 0.02 0.03 0.03 0.04 0.04 0.06 0.07 0.07 0.05 0.04
0.01 0.02 0.01 0.02 0.03 0.03 0.04 0.04 0.03 0.03 0.03 0.03 0.03 0.04 0.05 0.06 0.07 0.07 0.07 0.06 0.04 0.03 0.02 0.02 0.02 0.03 0.03 0.03 0.03 0.02 0.01 0.01 0.01 0.02 0.02 0.03 0.03 0.04 0.05 0.06 0.07 0.05 0.04
MSLP
1004.77 1004.56 1004.46 1004.44 1004.48 1004.57 1004.70 1004.86 1005.08 1005.35 1005.69 1006.09 1006.55 1007.05 1007.57 1008.07 1008.54 1008.96 1009.32 1009.61 1009.87 1010.12 1010.38 1010.68 1011.06 1011.52 1012.07 1012.70 1013.40 1014.14 1014.90 1015.66 1016.40 1017.10 1017.77 1018.40 1019.00 1019.57 1020.13 1020.66 1021.17 1021.64 1022.06
1003.86 1003.60 1003.47 1003.44 1003.51 1003.64 1003.83 1004.06 1004.34 1004.66 1005.03 1005.47 1005.96 1006.49 1007.05 1007.59 1008.10 1008.56 1008.95 1009.28 1009.56 1009.81 1010.06 1010.34 1010.69 1011.13 1011.67 1012.30 1013.01 1013.79 1014.60 1015.42 1016.22 1016.99 1017.73 1018.42 1019.07 1019.69 1020.28 1020.85 1021.38 1021.88 1022.31
1002.93 1002.63 1002.49 1002.49 1002.60 1002.80 1003.06 1003.37 1003.71 1004.09 1004.51 1004.98 1005.49 1006.03 1006.59 1007.15 1007.68 1008.16 1008.58 1008.94 1009.24 1009.51 1009.77 1010.06 1010.41 1010.84 1011.37 1012.00 1012.72 1013.51 1014.34 1015.18 1016.02 1016.82 1017.59 1018.31 1019.00 1019.65 1020.26 1020.85 1021.40 1021.92 1022.38
1002.07 1001.76 1001.63 1001.67 1001.84 1002.12 1002.46 1002.85 1003.27 1003.70 1004.16 1004.65 1005.16 1005.69 1006.23 1006.78 1007.30 1007.78 1008.21 1008.58 1008.91 1009.20 1009.49 1009.80 1010.16 1010.60 1011.14 1011.77 1012.49 1013.27 1014.10 1014.95 1015.78 1016.60 1017.37 1018.10 1018.79 1019.44 1020.06 1020.66 1021.22 1021.75 1022.23
1001.37 1001.07 1000.98 1001.06 1001.29 1001.65 1002.07 1002.53 1003.01 1003.50 1003.98 1004.47 1004.97 1005.47 1005.98 1006.48 1006.97 1007.43 1007.85 1008.22 1008.56 1008.87 1009.19 1009.53 1009.92 1010.38 1010.92 1011.56 1012.28 1013.06 1013.87 1014.70 1015.52 1016.31 1017.07 1017.78 1018.45 1019.09 1019.70 1020.29 1020.85 1021.38 1021.87
1000.90 1000.62 1000.56 1000.68 1000.97 1001.38 1001.87 1002.39 1002.92 1003.44 1003.94 1004.42 1004.89 1005.36 1005.82 1006.27 1006.70 1007.12 1007.50 1007.86 1008.20 1008.53 1008.86 1009.23 1009.65 1010.13 1010.70 1011.34 1012.06 1012.83 1013.63 1014.43 1015.23 1015.99 1016.72 1017.40 1018.04 1018.65 1019.24 1019.80 1020.35 1020.87 1021.36
1000.66 1000.41 1000.38 1000.54 1000.86 1001.31 1001.83 1002.38 1002.93 1003.46 1003.97 1004.44 1004.88 1005.30 1005.71 1006.10 1006.49 1006.85 1007.20 1007.54 1007.87 1008.20 1008.55 1008.93 1009.37 1009.87 1010.45 1011.10 1011.82 1012.58 1013.37 1014.15 1014.92 1015.66 1016.35 1017.00 1017.61 1018.19 1018.74 1019.28 1019.80 1020.30 1020.78
1000.64 1000.42 1000.41 1000.58 1000.92 1001.37 1001.89 1002.45 1003.00 1003.52 1004.01 1004.46 1004.88 1005.27 1005.63 1005.99 1006.33 1006.66 1006.98 1007.29 1007.61 1007.93 1008.28 1008.68 1009.12 1009.64 1010.22 1010.88 1011.59 1012.34 1013.12 1013.89 1014.64 1015.36 1016.03 1016.66 1017.24 1017.78 1018.30 1018.80 1019.29 1019.76 1020.22
1000.80 1000.61 1000.60 1000.78 1001.10 1001.53 1002.03 1002.55 1003.08 1003.58 1004.04 1004.47 1004.87 1005.23 1005.58 1005.91 1006.24 1006.55 1006.86 1007.16 1007.47 1007.79 1008.14 1008.53 1008.97 1009.48 1010.06 1010.71 1011.42 1012.16 1012.93 1013.69 1014.44 1015.14 1015.80 1016.41 1016.98 1017.50 1017.99 1018.46 1018.92 1019.36 1019.78
1001.10 1000.93 1000.93 1001.08 1001.37 1001.76 1002.20 1002.68 1003.15 1003.61 1004.05 1004.46 1004.84 1005.21 1005.56 1005.90 1006.23 1006.55 1006.87 1007.18 1007.49 1007.81 1008.16 1008.54 1008.97 1009.47 1010.03 1010.66 1011.35 1012.08 1012.84 1013.60 1014.34 1015.04 1015.70 1016.31 1016.87 1017.38 1017.85 1018.30 1018.72 1019.13 1019.52
1001.50 1001.35 1001.34 1001.48 1001.72 1002.05 1002.43 1002.84 1003.25 1003.66 1004.06 1004.45 1004.83 1005.20 1005.58 1005.95 1006.31 1006.67 1007.02 1007.36 1007.69 1008.02 1008.36 1008.74 1009.15 1009.62 1010.16 1010.76 1011.42 1012.13 1012.88 1013.63 1014.37 1015.08 1015.74 1016.36 1016.91 1017.42 1017.88 1018.31 1018.71 1019.08 1019.44
1001.99 1001.85 1001.84 1001.95 1002.14 1002.41 1002.71 1003.05 1003.40 1003.75 1004.11 1004.48 1004.86 1005.25 1005.66 1006.07 1006.49 1006.90 1007.30 1007.68 1008.04 1008.39 1008.74 1009.10 1009.50 1009.94 1010.44 1011.00 1011.63 1012.31 1013.03 1013.77 1014.51 1015.22 1015.89 1016.51 1017.08 1017.59 1018.04 1018.45 1018.83 1019.18 1019.51
1002.53 1002.41 1002.40 1002.48 1002.63 1002.84 1003.07 1003.34 1003.61 1003.91 1004.23 1004.57 1004.95 1005.36 1005.80 1006.27 1006.74 1007.21 1007.66 1008.09 1008.49 1008.86 1009.22 1009.57 1009.95 1010.36 1010.82 1011.34 1011.93 1012.58 1013.27 1013.99 1014.72 1015.43 1016.10 1016.73 1017.30 1017.80 1018.26 1018.66 1019.01 1019.34 1019.64
1003.11 1003.01 1003.00 1003.06 1003.17 1003.33 1003.50 1003.70 1003.92 1004.16 1004.44 1004.76 1005.13 1005.55 1006.01 1006.51 1007.03 1007.55 1008.05 1008.52 1008.95 1009.34 1009.71 1010.06 1010.42 1010.80 1011.22 1011.71 1012.25 1012.86 1013.52 1014.22 1014.93 1015.63 1016.30 1016.93 1017.49 1018.00 1018.45 1018.84 1019.18 1019.48 1019.74
1003.70 1003.62 1003.60 1003.65 1003.74 1003.85 1003.98 1004.13 1004.29 1004.49 1004.73 1005.02 1005.38 1005.79 1006.26 1006.78 1007.32 1007.87 1008.40 1008.90 1009.35 1009.75 1010.12 1010.47 1010.81 1011.16 1011.56 1012.01 1012.52 1013.09 1013.72 1014.39 1015.08 1015.76 1016.42 1017.04 1017.60 1018.10 1018.54 1018.91 1019.24 1019.51 1019.76
1004.26 1004.19 1004.17 1004.21 1004.28 1004.36 1004.47 1004.58 1004.71 1004.88 1005.09 1005.35 1005.69 1006.09 1006.55 1007.06 1007.59 1008.14 1008.67 1009.16 1009.62 1010.02 1010.38 1010.72 1011.04 1011.38 1011.75 1012.18 1012.66 1013.21 1013.81 1014.45 1015.12 1015.78 1016.43 1017.03 1017.58 1018.06 1018.49 1018.84 1019.15 1019.41 1019.63
1004.76 1004.69 1004.67 1004.70 1004.76 1004.83 1004.92 1005.02 1005.14 1005.29 1005.49 1005.73 1006.04 1006.42 1006.85 1007.32 1007.83 1008.34 1008.85 1009.32 1009.74 1010.13 1010.47 1010.79 1011.10 1011.43 1011.78 1012.19 1012.65 1013.18 1013.76 1014.38 1015.03 1015.67 1016.30 1016.89 1017.42 1017.89 1018.29 1018.63 1018.92 1019.16 1019.36
1005.17 1005.09 1005.07 1005.10 1005.15 1005.23 1005.32 1005.43 1005.55 1005.71 1005.90 1006.13 1006.42 1006.77 1007.16 1007.59 1008.04 1008.50 1008.95 1009.37 1009.75 1010.10 1010.41 1010.71 1011.00 1011.32 1011.66 1012.06 1012.52 1013.04 1013.60 1014.21 1014.84 1015.46 1016.07 1016.63 1017.14 1017.59 1017.97 1018.30 1018.57 1018.79 1018.98
1005.48 1005.40 1005.38 1005.40 1005.46 1005.55 1005.66 1005.79 1005.93 1006.11 1006.31 1006.55 1006.83 1007.14 1007.49 1007.86 1008.25 1008.64 1009.01 1009.36 1009.68 1009.98 1010.25 1010.52 1010.80 1011.11 1011.45 1011.85 1012.31 1012.82 1013.38 1013.97 1014.58 1015.18 1015.76 1016.30 1016.79 1017.21 1017.58 1017.88 1018.14 1018.35 1018.53
1005.71 1005.63 1005.60 1005.62 1005.69 1005.80 1005.94 1006.10 1006.28 1006.49 1006.71 1006.96 1007.24 1007.53 1007.83 1008.15 1008.47 1008.77 1009.06 1009.34 1009.59 1009.83 1010.07 1010.31 1010.57 1010.87 1011.22 1011.62 1012.07 1012.58 1013.13 1013.71 1014.30 1014.88 1015.43 1015.94 1016.40 1016.80 1017.15 1017.44 1017.68 1017.89 1018.07
1005.86 1005.79 1005.77 1005.80 1005.89 1006.01 1006.18 1006.38 1006.60 1006.84 1007.10 1007.36 1007.63 1007.91 1008.17 1008.43 1008.68 1008.91 1009.12 1009.32 1009.51 1009.70 1009.90 1010.11 1010.37 1010.66 1011.01 1011.42 1011.88 1012.38 1012.92 1013.48 1014.04 1014.59 1015.11 1015.59 1016.01 1016.39 1016.71 1016.99 1017.23 1017.44 1017.62
1005.95 1005.90 1005.90 1005.95 1006.06 1006.21 1006.40 1006.63 1006.89 1007.16 1007.44 1007.71 1007.98 1008.23 1008.47 1008.68 1008.86 1009.03 1009.17 1009.31 1009.45 1009.59 1009.76 1009.97 1010.22 1010.52 1010.87 1011.29 1011.75 1012.25 1012.77 1013.31 1013.84 1014.35 1014.82 1015.26 1015.65 1015.99 1016.29 1016.56 1016.79 1017.00 1017.20
1006.00 1005.99 1006.02 1006.09 1006.21 1006.38 1006.60 1006.85 1007.12 1007.41 1007.69 1007.97 1008.23 1008.46 1008.66 1008.82 1008.96 1009.07 1009.17 1009.27 1009.37 1009.50 1009.66 1009.87 1010.13 1010.44 1010.81 1011.23 1011.70 1012.19 1012.69 1013.19 1013.68 1014.15 1014.58 1014.97 1015.32 1015.63 1015.90 1016.15 1016.38 1016.60 1016.81
1005.99 1006.03 1006.10 1006.20 1006.34 1006.52 1006.74 1007.00 1007.27 1007.56 1007.83 1008.10 1008.33 1008.53 1008.69 1008.82 1008.92 1009.00 1009.07 1009.15 1009.24 1009.38 1009.55 1009.78 1010.07 1010.41 1010.80 1011.24 1011.70 1012.18 1012.66 1013.13 1013.58 1013.99 1014.37 1014.71 1015.01 1015.29 1015.54 1015.78 1016.00 1016.22 1016.44
1005.91 1006.00 1006.11 1006.24 1006.40 1006.59 1006.81 1007.05 1007.31 1007.57 1007.83 1008.06 1008.26 1008.42 1008.55 1008.65 1008.72 1008.78 1008.85 1008.93 1009.04 1009.20 1009.41 1009.68 1010.00 1010.38 1010.81 1011.26 1011.74 1012.21 1012.67 1013.10 1013.50 1013.87 1014.19 1014.48 1014.74 1014.98 1015.21 1015.43 1015.65 1015.87 1016.09
1005.73 1005.88 1006.03 1006.19 1006.36 1006.56 1006.77 1006.99 1007.22 1007.45 1007.66 1007.85 1008.01 1008.14 1008.24 1008.31 1008.37 1008.43 1008.50 1008.61 1008.75 1008.96 1009.22 1009.54 1009.92 1010.35 1010.81 1011.29 1011.77 1012.24 1012.68 1013.08 1013.44 1013.76 1014.04 1014.28 1014.51 1014.71 1014.91 1015.11 1015.32 1015.53 1015.75
Thickness
5683 5679 5675 5672 5670 5667 5664 5663 5661 5660 5659 5657 5656 5655 5654 5653 5653 5651 5650 5649 5648 5647 5647 5647 5646 5646 5646 5646 5647 5647 5647 5646 5645 5649 5653 5657 5658 5658 5658 5658 5658 5657 5656
5680 5676 5672 5668 5665 5663 5660 5658 5657 5655 5654 5652 5651 5649 5648 5648 5648 5645 5644 5643 5642 5642 5642 5641 5641 5642 5641 5641 5640 5641 5641 5643 5642 5643 5646 5649 5651 5653 5653 5653 5653 5653 5652
5677 5673 5668 5664 5660 5657 5656 5654 5653 5652 5650 5648 5646 5644 5643 5643 5642 5641 5639 5638 5637 5637 5638 5637 5637 5636 5635 5635 5635 5635 5636 5639 5639 5639 5641 5644 5645 5647 5647 5648 5648 5648 5648
5672 5668 5664 5660 5657 5655 5653 5651 5649 5648 5646 5645 5643 5642 5640 5638 5637 5636 5635 5633 5632 5633 5634 5634 5633 5632 5632 5631 5631 5631 5632 5633 5634 5635 5637 5639 5640 5642 5642 5641 5640 5641 5642
5667 5663 5659 5657 5655 5652 5649 5648 5646 5644 5644 5642 5640 5639 5638 5635 5633 5632 5630 5629 5628 5628 5629 5630 5630 5630 5630 5629 5629 5629 5629 5628 5630 5631 5633 5634 5635 5635 5636 5637 5635 5635 5636
5662 5659 5656 5654 5651 5649 5646 5645 5643 5641 5640 5639 5637 5635 5633 5632 5629 5627 5625 5623 5623 5623 5623 5625 5626 5626 5626 5626 5626 5627 5627 5626 5627 5627 5629 5630 5632 5633 5634 5633 5630 5629 5629
5658 5655 5652 5650 5648 5645 5644 5641 5639 5637 5636 5634 5633 5632 5630 5628 5625 5623 5621 5619 5619 5619 5619 5620 5622 5624 5624 5624 5624 5624 5624 5625 5626 5626 5626 5628 5630 5632 5630 5629 5627 5626 5626
5653 5651 5649 5646 5644 5642 5639 5637 5635 5634 5632 5631 5629 5628 5626 5625 5622 5619 5618 5617 5616 5616 5617 5618 5619 5620 5622 5621 5622 5622 5623 5625 5625 5624 5626 5627 5629 5629 5628 5627 5626 5625 5625
5649 5646 5645 5642 5639 5637 5635 5633 5632 5630 5629 5627 5627 5625 5624 5622 5620 5618 5615 5615 5614 5614 5615 5617 5618 5618 5619 5618 5618 5619 5620 5621 5623 5625 5625 5626 5626 5626 5624 5622 5620 5618 5617
5644 5642 5641 5638 5635 5633 5631 5629 5628 5626 5625 5625 5624 5623 5621 5620 5617 5615 5612 5613 5612 5613 5613 5615 5615 5615 5615 5615 5615 5615 5615 5617 5619 5620 5620 5621 5621 5621 5620 5618 5617 5615 5613
5641 5640 5637 5635 5632 5630 5628 5626 5624 5623 5622 5621 5621 5621 5619 5618 5615 5612 5609 5609 5609 5609 5610 5611 5611 5611 5611 5611 5611 5611 5612 5612 5613 5614 5615 5616 5617 5617 5617 5616 5615 5613 5610
5638 5636 5633 5631 5629 5628 5624 5622 5621 5620 5619 5618 5618 5617 5616 5614 5611 5608 5606 5605 5605 5605 5605 5606 5606 5606 5605 5605 5605 5607 5607 5607 5608 5609 5610 5611 5611 5612 5613 5613 5612 5610 5609
5633 5631 5629 5628 5626 5624 5621 5619 5618 5617 5615 5614 5613 5612 5611 5611 5608 5605 5602 5601 5600 5600 5600 5600 5599 5599 5600 5601 5601 5602 5602 5603 5604 5605 5605 5606 5608 5608 5608 5607 5606 5605 5603
5629 5627 5626 5624 5622 5620 5618 5617 5615 5614 5612 5611 5609 5608 5607 5606 5604 5601 5599 5597 5595 5594 5594 5594 5594 5595 5595 5596 5598 5598 5599 5601 5601 5601 5602 5603 5603 5602 5602 5601 5600 5598 5597
5624 5623 5622 5621 5619 5618 5616 5614 5613 5611 5609 5607 5606 5605 5602 5600 5598 5595 5593 5593 5591 5589 5587 5588 5590 5591 5592 5593 5595 5596 5597 5597 5597 5597 5597 5597 5597 5596 5596 5596 5595 5593 5591
5619 5618 5618 5618 5617 5617 5615 5613 5611 5608 5606 5604 5602 5600 5599 5597 5594 5592 5590 5588 5586 5584 5583 5585 5586 5587 5588 5589 5590 5592 5593 5593 5594 5594 5593 5592 5591 5591 5590 5590 5589 5587 5585
5615 5614 5614 5615 5615 5614 5613 5611 5608 5606 5604 5602 5600 5598 5595 5593 5591 5588 5586 5584 5582 5580 5581 5583 5584 5585 5586 5586 5587 5588 5588 5589 5589 5589 5588 5587 5586 5586 5585 5584 5584 5582 5581
5611 5611 5610 5611 5612 5612 5610 5609 5608 5606 5603 5602 5599 5596 5594 5591 5588 5585 5582 5580 5581 5580 5581 5582 5583 5583 5584 5584 5585 5584 5584 5584 5584 5584 5583 5582 5581 5580 5580 5579 5579 5578 5576
5607 5607 5607 5608 5608 5609 5608 5608 5607 5606 5603 5601 5599 5597 5593 5590 5586 5583 5580 5580 5582 5582 5582 5581 5581 5581 5580 5580 5579 5579 5579 5579 5579 5578 5578 5577 5576 5575 5575 5574 5574 5573 5571
5602 5601 5601 5603 5604 5605 5605 5604 5603 5602 5600 5598 5597 5595 5592 5589 5586 5584 5581 5580 5580 5580 5580 5579 5578 5578 5576 5576 5575 5574 5574 5574 5573 5573 5572 5572 5572 5571 5571 5570 5569 5568 5567
5598 5598 5596 5597 5599 5599 5598 5598 5598 5597 5596 5596 5594 5592 5588 5587 5586 5585 5582 5580 5578 5578 5577 5576 5575 5574 5573 5573 5571 5570 5570 5569 5568 5567 5567 5567 5567 5567 5567 5566 5565 5564 5563
5592 5592 5592 5592 5593 5593 5592 5593 5593 5593 5592 5591 5589 5589 5585 5584 5584 5583 5581 5578 5577 5575 5574 5572 5571 5570 5569 5568 5567 5566 5565 5563 5563 5562 5562 5562 5562 5562 5562 5562 5561 5560 5559
5588 5588 5588 5588 5588 5586 5587 5588 5587 5587 5586 5585 5584 5583 5581 5580 5579 5578 5578 5576 5574 5572 5571 5569 5568 5567 5566 5565 5563 5561 5560 5558 5557 5557 5557 5557 5557 5557 5557 5556 5556 5555 5554
5585 5585 5584 5583 5583 5582 5582 5582 5582 5582 5581 5580 5580 5579 5578 5576 5576 5575 5574 5573 5571 5569 5567 5566 5565 5563 5562 5560 5557 5555 5553 5552 5551 5551 5551 5551 5551 5551 5551 5550 5550 5550 5550
5581 5581 5581 5579 5578 5577 5577 5577 5576 5576 5575 5575 5574 5573 5573 5572 5571 5571 5570 5569 5567 5566 5564 5563 5562 5560 5558 5555 5552 5549 5547 5546 5545 5545 5545 5546 5546 5546 5546 5547 5546 5546 5545
5578 5578 5577 5576 5574 5573 5572 5571 5571 5572 5571 5570 5569 5569 5568 5568 5567 5567 5566 5565 5563 5562 5561 5559 5557 5556 5553 5551 5548 5545 5542 5541 5540 5540 5540 5541 5541 5542 5542 5542 5542 5542 5541